This is the latest recevied weather packets stored in our database for station/object KB4KY. If no packets are shown the sender has not sent any weather packets the latest 10 day(s).
| Time | Temp. | Humidity | Pressure | Rain* | Wind** | Luminosity | Snow |
|---|---|---|---|---|---|---|---|
| 1777923973 | 27.78° C | 43% | 1008.3 hPa | 0 mm | - | - | - |
| 1777923679 | 27.78° C | 46% | 1008.4 hPa | 0 mm | - | - | - |
| 1777923372 | 27.78° C | 45% | 1008.5 hPa | 0 mm | - | - | - |
| 1777923075 | 27.78° C | 45% | 1008.6 hPa | 0 mm | - | - | - |
| 1777922793 | 27.22° C | 45% | 1008.7 hPa | 0 mm | - | - | - |
| 1777922772 | 27.78° C | 44% | 1008.6 hPa | 0 mm | - | - | - |
| 1777922469 | 27.22° C | 46% | 1008.7 hPa | 0 mm | - | - | - |
| 1777922170 | 27.22° C | 45% | 1008.7 hPa | 0 mm | - | - | - |
| 1777921870 | 26.67° C | 45% | 1008.8 hPa | 0 mm | - | - | - |
| 1777921569 | 26.67° C | 47% | 1008.8 hPa | 0 mm | - | - | - |
| 1777921270 | 26.67° C | 49% | 1009 hPa | 0 mm | - | - | - |
| 1777920968 | 26.67° C | 49% | 1009 hPa | 0 mm | - | - | - |
| 1777920667 | 26.67° C | 44% | 1009.1 hPa | 0 mm | - | - | - |
| 1777920369 | 26.67° C | 50% | 1009.1 hPa | 0 mm | - | - | - |
| 1777920067 | 26.67° C | 48% | 1009.1 hPa | 0 mm | - | - | - |
| 1777919767 | 26.67° C | 49% | 1008.8 hPa | 0 mm | - | - | - |
| 1777919470 | 26.11° C | 48% | 1008.9 hPa | 0 mm | - | - | - |
| 1777919166 | 26.11° C | 49% | 1009.1 hPa | 0 mm | - | - | - |
| 1777918867 | 26.11° C | 48% | 1009.1 hPa | 0 mm | - | - | - |
| 1777918572 | 26.11° C | 50% | 1009.1 hPa | 0 mm | - | - | - |
| 1777918265 | 26.11° C | 49% | 1009.2 hPa | 0 mm | - | - | - |
| 1777917965 | 26.11° C | 52% | 1009.2 hPa | 0 mm | - | - | - |
| 1777917665 | 25.56° C | 49% | 1009.3 hPa | 0 mm | - | - | - |
| 1777917364 | 25.56° C | 51% | 1009.2 hPa | 0 mm | - | - | - |
| 1777917064 | 25.56° C | 51% | 1009.3 hPa | 0 mm | - | - | - |
* Rain latest hour (hover to see other rain measurements)
** Current wind speed in m/s (hover to see current wind gust speed)